Location: Derby
(52.9213°N, 1.4761°W)
Time: 15:40:41
(UTC+01:00)

Vanguard 1 - Pass Details

Date: 24 May 2025
Orbit: 649 x 3822 km, 34.3° (Epoch: 14 June)

Event Time Altitude Azimuth Distance (km) Brightness Sun altitude
Rises 14:52:32 0° 195° (SSW) 7,949 15.2 51.7°
Reaches altitude 10° 15:00:45 10° 181° (S) 6,834 14.9 50.8°
Maximum altitude 15:13:24 19° 146° (SE) 5,538 14.2 49.4°
Drops below altitude 10° 15:23:40 10° 109° (ESE) 5,490 13.7 48.1°
Sets 15:28:59 0° 93° (E) 5,972 13.7 47.5°
